RH
69 69 70 72 73 73 70 70 73 71 68 65 61 54 49 44 43 42 41 41 41 42
74 73 75 75 76 75 73 74 74 73 68 64 60 56 50 48 47 45 45 45 45 44
78 80 81 80 74 75 74 74 73 69 67 66 61 57 52 49 47 45 45 44 44 45
77 80 77 73 72 75 77 73 72 71 69 67 63 54 51 48 47 45 44 43 43 48
65 69 69 68 73 74 74 72 68 67 67 61 53 50 51 50 48 47 46 44 44 48
42 45 50 59 66 67 70 70 68 62 58 56 55 53 52 52 50 50 50 49 48 50
41 42 44 46 49 52 54 54 55 51 50 51 50 52 54 55 55 55 54 55 54 53
46 48 47 47 48 48 48 48 46 47 47 47 49 50 53 55 56 56 58 57 56 56
53 52 51 51 51 52 52 50 50 51 50 49 51 53 56 57 57 59 63 64 62 60
56 58 58 57 54 54 53 53 55 55 56 55 55 57 58 60 64 66 68 68 68 66
58 60 59 57 57 58 56 59 62 62 62 60 61 63 64 67 69 71 72 71 68 63
62 64 64 64 64 65 66 65 64 62 61 63 66 68 72 73 75 76 75 70 56 43
69 69 71 72 70 69 69 70 69 67 67 68 71 74 74 74 75 71 63 52 47 43
73 74 74 76 74 71 70 72 72 71 68 70 78 83 77 68 66 57 51 52 49 47